Time,TemperatureF,DewpointF,PressureIn,WindDirection,WindDirectionDegrees,WindSpeedMPH,WindSpeedGustMPH,Humidity,HourlyPrecipIn,Conditions,Clouds,dailyrainin,SoftwareType,DateUTC
2013-07-28 00:12:00,62.0,-99.9,-100.00,WSW,244,10.0,13.0,-999,-99.99,,,-99.99,,2013-07-28 04:12:00,
2013-07-28 00:43:00,62.0,-99.9,-100.00,SW,233,16.0,20.0,-999,-99.99,,,-99.99,,2013-07-28 04:43:00,
2013-07-28 01:02:00,62.0,-99.9,-100.00,SW,233,16.0,20.0,-999,-99.99,,,-99.99,,2013-07-28 05:02:00,
2013-07-28 01:12:00,62.0,-99.9,-100.00,SW,233,16.0,20.0,-999,-99.99,,,-99.99,,2013-07-28 05:12:00,
2013-07-28 01:22:00,62.0,-99.9,-100.00,SW,233,16.0,20.0,-999,-99.99,,,-99.99,,2013-07-28 05:22:00,
2013-07-28 01:32:00,62.0,-99.9,-100.00,SW,233,16.0,20.0,-999,-99.99,,,-99.99,,2013-07-28 05:32:00,
2013-07-28 01:44:00,62.0,-99.9,-100.00,SW,218,17.0,20.0,-999,-99.99,,,-99.99,,2013-07-28 05:44:00,
2013-07-28 01:53:00,62.0,-99.9,-100.00,SW,218,17.0,20.0,-999,-99.99,,,-99.99,,2013-07-28 05:53:00,
2013-07-28 02:02:00,62.0,-99.9,-100.00,SW,218,17.0,20.0,-999,-99.99,,,-99.99,,2013-07-28 06:02:00,
2013-07-28 02:12:00,62.0,-99.9,-100.00,SW,218,17.0,20.0,-999,-99.99,,,-99.99,,2013-07-28 06:12:00,
2013-07-28 02:22:00,62.0,-99.9,-100.00,SW,218,17.0,20.0,-999,-99.99,,,-99.99,,2013-07-28 06:22:00,
2013-07-28 02:32:00,62.0,-99.9,-100.00,SW,218,17.0,20.0,-999,-99.99,,,-99.99,,2013-07-28 06:32:00,
2013-07-28 02:43:00,62.0,-99.9,-100.00,SSW,209,20.0,25.0,-999,-99.99,,,-99.99,,2013-07-28 06:43:00,
2013-07-28 03:02:00,62.0,-99.9,-100.00,SSW,209,20.0,25.0,-999,-99.99,,,-99.99,,2013-07-28 07:02:00,
2013-07-28 03:12:00,62.0,-99.9,-100.00,SSW,209,20.0,25.0,-999,-99.99,,,-99.99,,2013-07-28 07:12:00,
2013-07-28 03:23:00,62.0,-99.9,-100.00,SSW,209,20.0,25.0,-999,-99.99,,,-99.99,,2013-07-28 07:23:00,
2013-07-28 03:32:00,62.0,-99.9,-100.00,SSW,209,20.0,25.0,-999,-99.99,,,-99.99,,2013-07-28 07:32:00,
2013-07-28 03:43:00,62.0,-99.9,-100.00,SSW,209,20.0,25.0,-999,-99.99,,,-99.99,,2013-07-28 07:43:00,
2013-07-28 03:53:00,60.0,-99.9,-100.00,SW,235,20.0,28.0,-999,-99.99,,,-99.99,,2013-07-28 07:53:00,
2013-07-28 04:02:00,60.0,-99.9,-100.00,SW,235,20.0,28.0,-999,-99.99,,,-99.99,,2013-07-28 08:02:00,
2013-07-28 04:12:00,60.0,-99.9,-100.00,SW,235,20.0,28.0,-999,-99.99,,,-99.99,,2013-07-28 08:12:00,
2013-07-28 04:23:00,60.0,-99.9,-100.00,SW,235,20.0,28.0,-999,-99.99,,,-99.99,,2013-07-28 08:23:00,
2013-07-28 04:33:00,60.0,-99.9,-100.00,SW,235,20.0,28.0,-999,-99.99,,,-99.99,,2013-07-28 08:33:00,
2013-07-28 04:53:00,60.0,-99.9,-100.00,SW,228,20.0,26.0,-999,-99.99,,,-99.99,,2013-07-28 08:53:00,
2013-07-28 05:02:00,60.0,-99.9,-100.00,SW,228,20.0,26.0,-999,-99.99,,,-99.99,,2013-07-28 09:02:00,
2013-07-28 05:22:00,60.0,-99.9,-100.00,SW,228,20.0,26.0,-999,-99.99,,,-99.99,,2013-07-28 09:22:00,
2013-07-28 05:32:00,60.0,-99.9,-100.00,SW,228,20.0,26.0,-999,-99.99,,,-99.99,,2013-07-28 09:32:00,
2013-07-28 05:43:00,60.0,-99.9,-100.00,WSW,238,17.0,26.0,-999,-99.99,,,-99.99,,2013-07-28 09:43:00,
2013-07-28 05:53:00,60.0,-99.9,-100.00,WSW,238,17.0,26.0,-999,-99.99,,,-99.99,,2013-07-28 09:53:00,
2013-07-28 06:12:00,60.0,-99.9,-100.00,WSW,238,17.0,26.0,-999,-99.99,,,-99.99,,2013-07-28 10:12:00,
2013-07-28 06:22:00,60.0,-99.9,-100.00,WSW,238,17.0,26.0,-999,-99.99,,,-99.99,,2013-07-28 10:22:00,
2013-07-28 06:33:00,60.0,-99.9,-100.00,WSW,238,17.0,26.0,-999,-99.99,,,-99.99,,2013-07-28 10:33:00,
2013-07-28 06:42:00,60.0,-99.9,-100.00,WSW,238,17.0,26.0,-999,-99.99,,,-99.99,,2013-07-28 10:42:00,
2013-07-28 06:53:00,60.0,-99.9,-100.00,SW,221,21.0,24.0,-999,-99.99,,,-99.99,,2013-07-28 10:53:00,
2013-07-28 07:02:00,60.0,-99.9,-100.00,SW,221,21.0,24.0,-999,-99.99,,,-99.99,,2013-07-28 11:02:00,
2013-07-28 07:12:00,60.0,-99.9,-100.00,SW,221,21.0,24.0,-999,-99.99,,,-99.99,,2013-07-28 11:12:00,
2013-07-28 07:22:00,60.0,-99.9,-100.00,SW,221,21.0,24.0,-999,-99.99,,,-99.99,,2013-07-28 11:22:00,
2013-07-28 07:43:00,60.0,-99.9,-100.00,SW,221,21.0,24.0,-999,-99.99,,,-99.99,,2013-07-28 11:43:00,
2013-07-28 07:54:00,60.0,-99.9,-100.00,SW,221,21.0,24.0,-999,-99.99,,,-99.99,,2013-07-28 11:54:00,
2013-07-28 08:03:00,60.0,-99.9,-100.00,SW,233,20.0,25.0,-999,-99.99,,,-99.99,,2013-07-28 12:03:00,
2013-07-28 08:13:00,60.0,-99.9,-100.00,SW,233,20.0,25.0,-999,-99.99,,,-99.99,,2013-07-28 12:13:00,
2013-07-28 08:22:00,60.0,-99.9,-100.00,SW,233,20.0,25.0,-999,-99.99,,,-99.99,,2013-07-28 12:22:00,
2013-07-28 08:33:00,60.0,-99.9,-100.00,SW,233,20.0,25.0,-999,-99.99,,,-99.99,,2013-07-28 12:33:00,
2013-07-28 08:43:00,59.0,-99.9,-100.00,SW,223,21.0,0.0,-999,-99.99,,,-99.99,,2013-07-28 12:43:00,
2013-07-28 09:03:00,59.0,-99.9,-100.00,SW,223,21.0,0.0,-999,-99.99,,,-99.99,,2013-07-28 13:03:00,
2013-07-28 09:22:00,59.0,-99.9,-100.00,SW,223,21.0,0.0,-999,-99.99,,,-99.99,,2013-07-28 13:22:00,
2013-07-28 09:32:00,59.0,-99.9,-100.00,SW,223,21.0,0.0,-999,-99.99,,,-99.99,,2013-07-28 13:32:00,
2013-07-28 09:53:00,57.0,-99.9,-100.00,WSW,246,10.0,18.0,-999,-99.99,,,-99.99,,2013-07-28 13:53:00,
2013-07-28 10:12:00,57.0,-99.9,-100.00,WSW,246,10.0,18.0,-999,-99.99,,,-99.99,,2013-07-28 14:12:00,
2013-07-28 10:33:00,57.0,-99.9,-100.00,WSW,246,10.0,18.0,-999,-99.99,,,-99.99,,2013-07-28 14:33:00,
2013-07-28 10:43:00,57.0,-99.9,-100.00,WSW,246,10.0,18.0,-999,-99.99,,,-99.99,,2013-07-28 14:43:00,
2013-07-28 10:53:00,59.0,-99.9,-100.00,West,271,16.0,25.0,-999,-99.99,,,-99.99,,2013-07-28 14:53:00,
2013-07-28 11:03:00,59.0,-99.9,-100.00,West,271,16.0,25.0,-999,-99.99,,,-99.99,,2013-07-28 15:03:00,
2013-07-28 11:13:00,59.0,-99.9,-100.00,West,271,16.0,25.0,-999,-99.99,,,-99.99,,2013-07-28 15:13:00,
2013-07-28 11:23:00,59.0,-99.9,-100.00,West,271,16.0,25.0,-999,-99.99,,,-99.99,,2013-07-28 15:23:00,
2013-07-28 11:43:00,60.0,-99.9,-100.00,West,261,18.0,25.0,-999,-99.99,,,-99.99,,2013-07-28 15:43:00,
2013-07-28 11:53:00,60.0,-99.9,-100.00,West,261,18.0,25.0,-999,-99.99,,,-99.99,,2013-07-28 15:53:00,
2013-07-28 12:03:00,60.0,-99.9,-100.00,West,261,18.0,25.0,-999,-99.99,,,-99.99,,2013-07-28 16:03:00,
2013-07-28 12:12:00,60.0,-99.9,-100.00,West,261,18.0,25.0,-999,-99.99,,,-99.99,,2013-07-28 16:12:00,
2013-07-28 12:22:00,60.0,-99.9,-100.00,West,261,18.0,25.0,-999,-99.99,,,-99.99,,2013-07-28 16:22:00,
2013-07-28 12:43:00,60.0,-99.9,-100.00,West,261,18.0,25.0,-999,-99.99,,,-99.99,,2013-07-28 16:43:00,
2013-07-28 12:53:00,60.0,-99.9,-100.00,West,261,18.0,25.0,-999,-99.99,,,-99.99,,2013-07-28 16:53:00,
2013-07-28 13:02:00,62.0,-99.9,-100.00,West,260,15.0,22.0,-999,-99.99,,,-99.99,,2013-07-28 17:02:00,
2013-07-28 13:13:00,62.0,-99.9,-100.00,West,260,15.0,22.0,-999,-99.99,,,-99.99,,2013-07-28 17:13:00,
2013-07-28 13:33:00,62.0,-99.9,-100.00,West,260,15.0,22.0,-999,-99.99,,,-99.99,,2013-07-28 17:33:00,
2013-07-28 13:44:00,62.0,-99.9,-100.00,West,260,15.0,22.0,-999,-99.99,,,-99.99,,2013-07-28 17:44:00,
2013-07-28 13:53:00,63.0,-99.9,-100.00,WSW,243,16.0,19.0,-999,-99.99,,,-99.99,,2013-07-28 17:53:00,
2013-07-28 14:03:00,63.0,-99.9,-100.00,WSW,243,16.0,19.0,-999,-99.99,,,-99.99,,2013-07-28 18:03:00,
2013-07-28 14:13:00,63.0,-99.9,-100.00,WSW,243,16.0,19.0,-999,-99.99,,,-99.99,,2013-07-28 18:13:00,
2013-07-28 14:23:00,63.0,-99.9,-100.00,WSW,243,16.0,19.0,-999,-99.99,,,-99.99,,2013-07-28 18:23:00,
2013-07-28 14:33:00,63.0,-99.9,-100.00,WSW,243,16.0,19.0,-999,-99.99,,,-99.99,,2013-07-28 18:33:00,
2013-07-28 14:43:00,63.0,-99.9,-100.00,WSW,245,14.0,19.0,-999,-99.99,,,-99.99,,2013-07-28 18:43:00,
2013-07-28 15:03:00,63.0,-99.9,-100.00,WSW,245,14.0,19.0,-999,-99.99,,,-99.99,,2013-07-28 19:03:00,
2013-07-28 15:13:00,63.0,-99.9,-100.00,WSW,245,14.0,19.0,-999,-99.99,,,-99.99,,2013-07-28 19:13:00,
2013-07-28 15:23:00,63.0,-99.9,-100.00,WSW,245,14.0,19.0,-999,-99.99,,,-99.99,,2013-07-28 19:23:00,
2013-07-28 15:33:00,63.0,-99.9,-100.00,WSW,245,14.0,19.0,-999,-99.99,,,-99.99,,2013-07-28 19:33:00,
2013-07-28 16:03:00,63.0,-99.9,-100.00,WSW,251,12.0,17.0,-999,-99.99,,,-99.99,,2013-07-28 20:03:00,
2013-07-28 16:13:00,63.0,-99.9,-100.00,WSW,251,12.0,17.0,-999,-99.99,,,-99.99,,2013-07-28 20:13:00,
2013-07-28 16:23:00,63.0,-99.9,-100.00,WSW,251,12.0,17.0,-999,-99.99,,,-99.99,,2013-07-28 20:23:00,
2013-07-28 16:33:00,63.0,-99.9,-100.00,WSW,251,12.0,17.0,-999,-99.99,,,-99.99,,2013-07-28 20:33:00,
2013-07-28 16:43:00,63.0,-99.9,-100.00,West,278,11.0,17.0,-999,-99.99,,,-99.99,,2013-07-28 20:43:00,
2013-07-28 16:53:00,63.0,-99.9,-100.00,West,278,11.0,17.0,-999,-99.99,,,-99.99,,2013-07-28 20:53:00,
2013-07-28 17:03:00,63.0,-99.9,-100.00,West,278,11.0,17.0,-999,-99.99,,,-99.99,,2013-07-28 21:03:00,
2013-07-28 17:13:00,63.0,-99.9,-100.00,West,278,11.0,17.0,-999,-99.99,,,-99.99,,2013-07-28 21:13:00,
2013-07-28 17:23:00,63.0,-99.9,-100.00,West,278,11.0,17.0,-999,-99.99,,,-99.99,,2013-07-28 21:23:00,
2013-07-28 17:44:00,63.0,-99.9,-100.00,West,278,11.0,17.0,-999,-99.99,,,-99.99,,2013-07-28 21:44:00,
2013-07-28 18:02:00,63.0,-99.9,-100.00,West,259,10.0,14.0,-999,-99.99,,,-99.99,,2013-07-28 22:02:00,
2013-07-28 18:22:00,63.0,-99.9,-100.00,West,259,10.0,14.0,-999,-99.99,,,-99.99,,2013-07-28 22:22:00,
2013-07-28 18:32:00,63.0,-99.9,-100.00,West,259,10.0,14.0,-999,-99.99,,,-99.99,,2013-07-28 22:32:00,
2013-07-28 18:43:00,63.0,-99.9,-100.00,West,259,10.0,14.0,-999,-99.99,,,-99.99,,2013-07-28 22:43:00,
2013-07-28 18:52:00,67.0,-99.9,-100.00,WSW,248,7.0,12.0,-999,-99.99,,,-99.99,,2013-07-28 22:52:00,
2013-07-28 19:03:00,67.0,-99.9,-100.00,WSW,248,7.0,12.0,-999,-99.99,,,-99.99,,2013-07-28 23:03:00,
2013-07-28 19:12:00,67.0,-99.9,-100.00,WSW,248,7.0,12.0,-999,-99.99,,,-99.99,,2013-07-28 23:12:00,
2013-07-28 19:23:00,67.0,-99.9,-100.00,WSW,248,7.0,12.0,-999,-99.99,,,-99.99,,2013-07-28 23:23:00,
2013-07-28 19:33:00,67.0,-99.9,-100.00,WSW,248,7.0,12.0,-999,-99.99,,,-99.99,,2013-07-28 23:33:00,
2013-07-28 19:53:00,69.0,-99.9,-100.00,SW,235,5.0,10.0,-999,-99.99,,,-99.99,,2013-07-28 23:53:00,
2013-07-28 20:03:00,69.0,-99.9,-100.00,SW,235,5.0,10.0,-999,-99.99,,,-99.99,,2013-07-29 00:03:00,
2013-07-28 20:12:00,69.0,-99.9,-100.00,SW,235,5.0,10.0,-999,-99.99,,,-99.99,,2013-07-29 00:12:00,
2013-07-28 20:32:00,69.0,-99.9,-100.00,SW,235,5.0,10.0,-999,-99.99,,,-99.99,,2013-07-29 00:32:00,
2013-07-28 20:43:00,69.0,-99.9,-100.00,SW,235,5.0,10.0,-999,-99.99,,,-99.99,,2013-07-29 00:43:00,
2013-07-28 20:52:00,65.0,-99.9,-100.00,SSW,195,5.0,7.0,-999,-99.99,,,-99.99,,2013-07-29 00:52:00,
2013-07-28 21:02:00,65.0,-99.9,-100.00,SSW,195,5.0,7.0,-999,-99.99,,,-99.99,,2013-07-29 01:02:00,
2013-07-28 21:15:00,65.0,-99.9,-100.00,SSW,195,5.0,7.0,-999,-99.99,,,-99.99,,2013-07-29 01:15:00,
2013-07-28 21:30:00,65.0,-99.9,-100.00,SSW,195,5.0,7.0,-999,-99.99,,,-99.99,,2013-07-29 01:30:00,
2013-07-28 22:03:00,65.0,-99.9,-100.00,SW,232,7.0,11.0,-999,-99.99,,,-99.99,,2013-07-29 02:03:00,
2013-07-28 22:08:00,65.0,-99.9,-100.00,SW,232,7.0,11.0,-999,-99.99,,,-99.99,,2013-07-29 02:08:00,
2013-07-28 22:16:00,65.0,-99.9,-100.00,SW,232,7.0,11.0,-999,-99.99,,,-99.99,,2013-07-29 02:16:00,
2013-07-28 22:27:00,65.0,-99.9,-100.00,SW,232,7.0,11.0,-999,-99.99,,,-99.99,,2013-07-29 02:27:00,
2013-07-28 22:52:00,65.0,-99.9,-100.00,SW,232,7.0,11.0,-999,-99.99,,,-99.99,,2013-07-29 02:52:00,
2013-07-28 23:07:00,65.0,-99.9,-100.00,SW,228,11.0,14.0,-999,-99.99,,,-99.99,,2013-07-29 03:07:00,
2013-07-28 23:38:00,65.0,-99.9,-100.00,SW,228,11.0,14.0,-999,-99.99,,,-99.99,,2013-07-29 03:38:00,
2013-07-28 23:52:00,65.0,-99.9,-100.00,SW,228,11.0,14.0,-999,-99.99,,,-99.99,,2013-07-29 03:52:00,
2013-07-28 23:58:00,65.0,-99.9,-100.00,SW,224,13.0,17.0,-999,-99.99,,,-99.99,,2013-07-29 03:58:00,